DAL1556 KTPA-KBOS

Flight info

Callsign DAL1556
Flight time 2h 33m
Altitude 33000
Route BAYPO2 CAMJO Q99 POLYY DADDS/N0449F350 Q87 GEARS BBOBO Q22 RBV Q419 JFK ROBUC3
Aircraft A321/M-SDE3FGHIRWY/LB1

Departure

Time 2026-05-04 20:00
Airport Tampa International Airport (KTPA)

Arrival

Time 2026-05-04 22:33
Airport Boston Logan International Airport (KBOS)
Time Latitude Longitude Altitude Speed Heading
2026-05-04 19:32 27.98079 -82.53881 44 ft 0 kts 92°
2026-05-04 19:48 27.98080 -82.53896 43 ft 3 kts 92°
2026-05-04 19:48 27.98081 -82.53916 44 ft 3 kts 92°
2026-05-04 19:48 27.98081 -82.53936 45 ft 2 kts 95°
2026-05-04 19:48 27.98087 -82.53954 42 ft 3 kts 152°
2026-05-04 19:49 27.98096 -82.53958 44 ft 0 kts 183°
2026-05-04 19:52 27.98072 -82.53965 47 ft 7 kts 194°
2026-05-04 19:52 27.98025 -82.53975 47 ft 6 kts 190°
2026-05-04 19:52 27.97987 -82.53974 46 ft 5 kts 178°
2026-05-04 19:52 27.97945 -82.53974 46 ft 9 kts 181°
2026-05-04 19:53 27.97887 -82.53976 45 ft 8 kts 180°
2026-05-04 19:53 27.97835 -82.53977 45 ft 9 kts 180°
2026-05-04 19:53 27.97755 -82.53978 45 ft 11 kts 181°
2026-05-04 19:53 27.97684 -82.53980 46 ft 9 kts 181°
2026-05-04 19:54 27.97627 -82.53982 46 ft 7 kts 182°
2026-05-04 19:54 27.97552 -82.53988 46 ft 15 kts 182°
2026-05-04 19:54 27.97449 -82.53991 47 ft 14 kts 182°
2026-05-04 19:54 27.97364 -82.54007 47 ft 11 kts 216°
2026-05-04 19:55 27.97328 -82.54068 47 ft 8 kts 216°
2026-05-04 19:55 27.97276 -82.54080 48 ft 10 kts 181°
2026-05-04 19:55 27.97207 -82.54082 48 ft 9 kts 181°
2026-05-04 19:55 27.97133 -82.54085 49 ft 15 kts 182°
2026-05-04 19:56 27.97025 -82.54089 49 ft 15 kts 182°
2026-05-04 19:56 27.96926 -82.54092 49 ft 13 kts 181°
2026-05-04 19:56 27.96840 -82.54095 49 ft 12 kts 181°
2026-05-04 19:56 27.96743 -82.54098 49 ft 16 kts 181°
2026-05-04 19:57 27.96639 -82.54101 49 ft 14 kts 181°
2026-05-04 19:57 27.96548 -82.54104 48 ft 12 kts 181°
2026-05-04 19:57 27.96467 -82.54107 48 ft 11 kts 182°
2026-05-04 19:57 27.96392 -82.54110 47 ft 10 kts 182°
2026-05-04 19:58 27.96345 -82.54141 47 ft 8 kts 249°
2026-05-04 19:58 27.96344 -82.54194 47 ft 6 kts 294°
2026-05-04 19:58 27.96378 -82.54231 47 ft 7 kts 346°
2026-05-04 19:58 27.96419 -82.54234 48 ft 5 kts 357°
2026-05-04 19:59 27.96455 -82.54232 48 ft 10 kts
2026-05-04 19:59 27.96764 -82.54220 51 ft 78 kts
2026-05-04 19:59 27.97506 -82.54195 48 ft 133 kts
2026-05-04 19:59 27.98580 -82.54147 109 ft 169 kts
2026-05-04 20:00 27.99770 -82.54152 696 ft 173 kts 359°
2026-05-04 20:00 28.00970 -82.54135 1512 ft 171 kts
2026-05-04 20:00 28.02194 -82.54047 2045 ft 186 kts
2026-05-04 20:00 28.03563 -82.53936 2444 ft 209 kts
2026-05-04 20:01 28.05110 -82.53784 3017 ft 236 kts
2026-05-04 20:01 28.06820 -82.53972 3450 ft 260 kts 348°
2026-05-04 20:01 28.08610 -82.54465 3973 ft 268 kts 347°
2026-05-04 20:01 28.10433 -82.54978 4647 ft 271 kts 348°
2026-05-04 20:02 28.12277 -82.55498 5300 ft 275 kts 347°
2026-05-04 20:02 28.14146 -82.56023 5986 ft 278 kts 347°
2026-05-04 20:02 28.16031 -82.56549 6649 ft 280 kts 346°
2026-05-04 20:02 28.17931 -82.57072 7295 ft 283 kts 345°
2026-05-04 20:03 28.19863 -82.57552 7918 ft 287 kts 351°
2026-05-04 20:03 28.21878 -82.57669 8524 ft 291 kts 356°
2026-05-04 20:03 28.23915 -82.57725 9156 ft 294 kts 356°
2026-05-04 20:03 28.25969 -82.57778 9769 ft 298 kts 356°
2026-05-04 20:04 28.28055 -82.57836 10265 ft 305 kts 356°
2026-05-04 20:04 28.30251 -82.57904 10380 ft 326 kts 356°
2026-05-04 20:04 28.32583 -82.57978 10502 ft 345 kts 356°
2026-05-04 20:04 28.35045 -82.58053 10623 ft 363 kts 356°
2026-05-04 20:05 28.37623 -82.58126 10819 ft 377 kts 356°
2026-05-04 20:05 28.40266 -82.58193 11308 ft 381 kts 356°
2026-05-04 20:05 28.42927 -82.58257 11871 ft 384 kts 356°
2026-05-04 20:05 28.45571 -82.58318 12429 ft 386 kts 356°
2026-05-04 20:06 28.48298 -82.58378 13033 ft 388 kts 356°
2026-05-04 20:06 28.50961 -82.58437 13570 ft 390 kts 356°
2026-05-04 20:06 28.53682 -82.58503 14084 ft 392 kts 356°
2026-05-04 20:06 28.56456 -82.58574 14530 ft 395 kts 356°
2026-05-04 20:07 28.59175 -82.58647 14975 ft 397 kts 356°
2026-05-04 20:07 28.61984 -82.58725 15422 ft 400 kts 355°
2026-05-04 20:07 28.64743 -82.58801 15848 ft 403 kts 355°
2026-05-04 20:07 28.67553 -82.58933 16262 ft 404 kts 351°
2026-05-04 20:08 28.70343 -82.59314 16680 ft 406 kts 349°
2026-05-04 20:08 28.73162 -82.59705 17118 ft 408 kts 349°
2026-05-04 20:08 28.75986 -82.60098 17545 ft 411 kts 349°
2026-05-04 20:08 28.78833 -82.60496 17973 ft 413 kts 349°
2026-05-04 20:09 28.81697 -82.60899 18388 ft 416 kts 349°
2026-05-04 20:09 28.84576 -82.61305 18743 ft 418 kts 349°
2026-05-04 20:09 28.87470 -82.61709 19112 ft 420 kts 349°
2026-05-04 20:09 28.90387 -82.62111 19476 ft 422 kts 348°
2026-05-04 20:10 28.93309 -82.62515 19843 ft 424 kts 348°
2026-05-04 20:10 28.96236 -82.62921 20211 ft 426 kts 348°
2026-05-04 20:10 28.99182 -82.63333 20573 ft 428 kts 348°
2026-05-04 20:10 29.02142 -82.63748 20940 ft 430 kts 348°
2026-05-04 20:11 29.05116 -82.64164 21312 ft 432 kts 348°
2026-05-04 20:11 29.08104 -82.64581 21679 ft 433 kts 348°
2026-05-04 20:11 29.11102 -82.65001 22040 ft 435 kts 348°
2026-05-04 20:11 29.14114 -82.65423 22392 ft 437 kts 347°
2026-05-04 20:12 29.17137 -82.65847 22738 ft 439 kts 347°
2026-05-04 20:12 29.20175 -82.66276 23087 ft 440 kts 347°
2026-05-04 20:12 29.23221 -82.66710 23415 ft 442 kts 347°
2026-05-04 20:12 29.26282 -82.67146 23733 ft 444 kts 347°
2026-05-04 20:13 29.29357 -82.67579 24003 ft 446 kts 347°
2026-05-04 20:13 29.32444 -82.68009 24283 ft 448 kts 347°
2026-05-04 20:13 29.35540 -82.68442 24588 ft 449 kts 347°
2026-05-04 20:13 29.38646 -82.68879 24865 ft 450 kts 347°
2026-05-04 20:14 29.41771 -82.69280 25136 ft 455 kts 351°
2026-05-04 20:14 29.44959 -82.69315 25390 ft 460 kts 354°
2026-05-04 20:14 29.48122 -82.69288 25642 ft 461 kts 354°
2026-05-04 20:14 29.51373 -82.69261 25903 ft 463 kts 354°
2026-05-04 20:15 29.54559 -82.69238 26155 ft 464 kts 354°
2026-05-04 20:15 29.57829 -82.69220 26418 ft 465 kts 354°
2026-05-04 20:15 29.61073 -82.69204 26677 ft 467 kts 354°
2026-05-04 20:15 29.64328 -82.69187 26960 ft 468 kts 354°
2026-05-04 20:16 29.67558 -82.69170 27205 ft 470 kts 353°
2026-05-04 20:16 29.70826 -82.69151 27448 ft 471 kts 353°
2026-05-04 20:16 29.74101 -82.69129 27786 ft 470 kts 353°
2026-05-04 20:16 29.77369 -82.69104 28121 ft 469 kts 353°
2026-05-04 20:17 29.80627 -82.69079 28446 ft 468 kts 353°
2026-05-04 20:17 29.83883 -82.69056 28781 ft 467 kts 353°
2026-05-04 20:17 29.87128 -82.69035 29109 ft 466 kts 353°
2026-05-04 20:17 29.90363 -82.69013 29425 ft 465 kts 353°
2026-05-04 20:18 29.93593 -82.68994 29787 ft 463 kts 353°
2026-05-04 20:18 29.96815 -82.68976 30108 ft 462 kts 353°
2026-05-04 20:18 30.00029 -82.68956 30380 ft 461 kts 352°
2026-05-04 20:18 30.03238 -82.68937 30625 ft 461 kts 352°
2026-05-04 20:19 30.06443 -82.68917 30877 ft 460 kts 352°
2026-05-04 20:19 30.09643 -82.68893 31133 ft 460 kts 352°
2026-05-04 20:19 30.12840 -82.68870 31384 ft 459 kts 352°
2026-05-04 20:19 30.16033 -82.68850 31635 ft 459 kts 352°
2026-05-04 20:20 30.19223 -82.68831 31885 ft 458 kts 352°
2026-05-04 20:20 30.22407 -82.68813 32212 ft 457 kts 352°
2026-05-04 20:20 30.25580 -82.68794 32534 ft 456 kts 352°
2026-05-04 20:20 30.28752 -82.68779 32788 ft 455 kts 352°
2026-05-04 20:21 30.31918 -82.68763 33040 ft 455 kts 352°
2026-05-04 20:21 30.41374 -82.68697 33132 ft 451 kts 352°
2026-05-04 20:22 30.47640 -82.68657 33148 ft 451 kts 352°
2026-05-04 20:22 30.53949 -82.68001 33148 ft 462 kts
2026-05-04 20:23 30.60280 -82.66642 33145 ft 463 kts
2026-05-04 20:23 30.66608 -82.65293 33143 ft 462 kts
2026-05-04 20:24 30.72942 -82.63953 33138 ft 463 kts
2026-05-04 20:24 30.79275 -82.62601 33150 ft 463 kts
2026-05-04 20:25 30.85609 -82.61235 33139 ft 463 kts
2026-05-04 20:25 30.91942 -82.59872 33125 ft 463 kts
2026-05-04 20:26 30.98274 -82.58503 33106 ft 463 kts
2026-05-04 20:26 31.04613 -82.57146 33129 ft 463 kts
2026-05-04 20:27 31.10845 -82.54987 33094 ft 479 kts 18°
2026-05-04 20:27 31.16751 -82.51407 33094 ft 482 kts 19°
2026-05-04 20:28 31.22702 -82.47785 33063 ft 482 kts 19°
2026-05-04 20:28 31.28656 -82.44179 33066 ft 482 kts 19°
2026-05-04 20:29 31.34618 -82.40555 33102 ft 483 kts 19°
2026-05-04 20:29 31.40580 -82.36906 33084 ft 483 kts 19°
2026-05-04 20:30 31.46549 -82.33264 33085 ft 484 kts 19°
2026-05-04 20:30 31.51521 -82.30225 33082 ft 484 kts 19°
2026-05-04 20:31 31.57491 -82.26569 33128 ft 484 kts 19°
2026-05-04 20:31 31.63465 -82.22906 33112 ft 484 kts 19°
2026-05-04 20:32 31.69436 -82.19250 33102 ft 484 kts 19°
2026-05-04 20:32 31.75400 -82.15583 33096 ft 484 kts 19°
2026-05-04 20:33 31.81352 -82.11909 33095 ft 484 kts 19°
2026-05-04 20:33 31.87294 -82.08239 33086 ft 480 kts 20°
2026-05-04 20:34 31.93200 -82.04595 33092 ft 479 kts 20°
2026-05-04 20:34 31.99102 -82.00949 33077 ft 479 kts 20°
2026-05-04 20:35 32.05001 -81.97295 33085 ft 479 kts 20°
2026-05-04 20:35 32.10899 -81.93635 33097 ft 479 kts 21°
2026-05-04 20:36 32.16793 -81.89993 33104 ft 477 kts 20°
2026-05-04 20:36 32.22719 -81.86500 33091 ft 475 kts 19°
2026-05-04 20:37 32.28657 -81.83071 33091 ft 475 kts 19°
2026-05-04 20:37 32.34588 -81.79627 33072 ft 475 kts 19°
2026-05-04 20:38 32.40502 -81.76145 33094 ft 474 kts 20°
2026-05-04 20:38 32.46393 -81.72658 33087 ft 473 kts 20°
2026-05-04 20:39 32.52275 -81.69181 33081 ft 472 kts 20°
2026-05-04 20:39 32.58151 -81.65709 33105 ft 472 kts 20°
2026-05-04 20:40 32.63981 -81.62246 33122 ft 472 kts 20°
2026-05-04 20:40 32.69864 -81.58770 33106 ft 472 kts 20°
2026-05-04 20:41 32.75743 -81.55285 33069 ft 472 kts 20°
2026-05-04 20:41 32.81622 -81.51778 33065 ft 472 kts 20°
2026-05-04 20:42 32.87495 -81.48280 33096 ft 473 kts 20°
2026-05-04 20:42 32.93378 -81.44771 33083 ft 472 kts 20°
2026-05-04 20:43 32.99248 -81.41260 33075 ft 472 kts 20°
2026-05-04 20:43 33.05119 -81.37750 33078 ft 472 kts 20°
2026-05-04 20:44 33.10987 -81.34236 33073 ft 472 kts 20°
2026-05-04 20:44 33.16851 -81.30721 33069 ft 472 kts 20°
2026-05-04 20:45 33.22723 -81.27190 33066 ft 472 kts 20°
2026-05-04 20:45 33.28587 -81.23655 33063 ft 473 kts 20°
2026-05-04 20:46 33.34465 -81.20115 33066 ft 473 kts 20°
2026-05-04 20:46 33.40344 -81.16558 33083 ft 473 kts 20°
2026-05-04 20:47 33.46214 -81.12998 33071 ft 473 kts 20°
2026-05-04 20:47 33.52092 -81.09439 33062 ft 473 kts 20°
2026-05-04 20:48 33.57960 -81.05878 33059 ft 472 kts 20°
2026-05-04 20:48 33.63824 -81.02321 33087 ft 472 kts 20°
2026-05-04 20:49 33.69689 -80.98763 33078 ft 472 kts 21°
2026-05-04 20:49 33.75545 -80.95188 33065 ft 472 kts 21°
2026-05-04 20:50 33.81397 -80.91610 33050 ft 472 kts 21°
2026-05-04 20:50 33.87060 -80.87581 33032 ft 480 kts 32°
2026-05-04 20:51 33.92286 -80.82666 33051 ft 480 kts 33°
2026-05-04 20:51 33.97549 -80.77732 33036 ft 479 kts 32°
2026-05-04 20:52 34.02814 -80.72800 33028 ft 479 kts 32°
2026-05-04 20:52 34.08072 -80.67858 33033 ft 479 kts 33°
2026-05-04 20:53 34.13333 -80.62900 33066 ft 479 kts 33°
2026-05-04 20:53 34.18581 -80.57946 33070 ft 478 kts 33°
2026-05-04 20:54 34.23825 -80.52984 33062 ft 478 kts 33°
2026-05-04 20:54 34.29059 -80.48048 33059 ft 477 kts 32°
2026-05-04 20:55 34.34344 -80.43194 33058 ft 477 kts 32°
2026-05-04 20:55 34.39600 -80.38387 33082 ft 477 kts 32°
2026-05-04 20:56 34.44876 -80.33525 33071 ft 476 kts 32°
2026-05-04 20:56 34.50135 -80.28649 33081 ft 476 kts 33°
2026-05-04 20:57 34.55396 -80.23763 33066 ft 476 kts 33°
2026-05-04 20:57 34.60645 -80.18885 33071 ft 476 kts 33°
2026-05-04 20:58 34.65893 -80.13989 33053 ft 475 kts 33°
2026-05-04 20:58 34.71142 -80.09097 33040 ft 475 kts 33°
2026-05-04 20:59 34.76386 -80.04212 33034 ft 475 kts 33°
2026-05-04 20:59 34.81495 -79.99084 33030 ft 480 kts 42°
2026-05-04 21:00 34.85803 -79.92816 33044 ft 483 kts 47°
2026-05-04 21:00 34.90048 -79.86456 33040 ft 484 kts 47°
2026-05-04 21:01 34.94303 -79.80093 33035 ft 484 kts 47°
2026-05-04 21:01 34.98554 -79.73716 33020 ft 485 kts 47°
2026-05-04 21:02 35.02804 -79.67318 32992 ft 486 kts 47°
2026-05-04 21:02 35.07058 -79.60912 33012 ft 486 kts 47°
2026-05-04 21:03 35.11319 -79.54500 33005 ft 486 kts 47°
2026-05-04 21:03 35.15570 -79.48071 33008 ft 486 kts 47°
2026-05-04 21:04 35.19808 -79.41635 33035 ft 486 kts 47°
2026-05-04 21:04 35.24062 -79.35190 33029 ft 487 kts 47°
2026-05-04 21:05 35.28320 -79.28737 33047 ft 487 kts 47°
2026-05-04 21:05 35.32576 -79.22269 33044 ft 488 kts 47°
2026-05-04 21:06 35.36825 -79.15791 33039 ft 488 kts 47°
2026-05-04 21:06 35.41066 -79.09303 33032 ft 488 kts 47°
2026-05-04 21:07 35.45273 -79.02850 33030 ft 488 kts 47°
2026-05-04 21:07 35.49545 -78.96304 33025 ft 488 kts 47°
2026-05-04 21:08 35.53752 -78.89837 33026 ft 489 kts 47°
2026-05-04 21:08 35.57995 -78.83311 33030 ft 488 kts 46°
2026-05-04 21:09 35.62865 -78.77661 33029 ft 477 kts 29°
2026-05-04 21:09 35.68542 -78.73581 33029 ft 472 kts 24°
2026-05-04 21:10 35.74266 -78.69602 33051 ft 472 kts 24°
2026-05-04 21:10 35.79976 -78.65608 33037 ft 472 kts 24°
2026-05-04 21:11 35.85698 -78.61615 33028 ft 473 kts 24°
2026-05-04 21:11 35.91427 -78.57613 33032 ft 473 kts 24°
2026-05-04 21:12 35.97152 -78.53617 33052 ft 473 kts 24°
2026-05-04 21:12 36.02874 -78.49605 33041 ft 473 kts 24°
2026-05-04 21:13 36.08594 -78.45588 33035 ft 473 kts 24°
2026-05-04 21:13 36.14313 -78.41566 33031 ft 473 kts 24°
2026-05-04 21:14 36.19061 -78.38228 33070 ft 473 kts 23°
2026-05-04 21:14 36.25709 -78.33530 33023 ft 473 kts 23°
2026-05-04 21:15 36.31425 -78.29483 33013 ft 473 kts 23°
2026-05-04 21:15 36.36204 -78.26076 33006 ft 475 kts 26°
2026-05-04 21:16 36.41352 -78.20791 33030 ft 484 kts 38°
2026-05-04 21:16 36.46246 -78.15025 33009 ft 485 kts 38°
2026-05-04 21:17 36.51142 -78.09269 33004 ft 485 kts 38°
2026-05-04 21:17 36.56020 -78.03538 33005 ft 485 kts 38°
2026-05-04 21:18 36.60922 -77.97764 33032 ft 485 kts 38°
2026-05-04 21:18 36.65816 -77.91971 33047 ft 485 kts 38°
2026-05-04 21:19 36.70706 -77.86166 33027 ft 485 kts 38°
2026-05-04 21:19 36.75592 -77.80348 32981 ft 485 kts 38°
2026-05-04 21:20 36.80481 -77.74536 32982 ft 485 kts 38°
2026-05-04 21:20 36.85373 -77.68734 33015 ft 485 kts 38°
2026-05-04 21:21 36.90253 -77.62934 33016 ft 484 kts 38°
2026-05-04 21:21 36.95112 -77.57128 32995 ft 483 kts 38°
2026-05-04 21:22 36.99965 -77.51304 32987 ft 483 kts 38°
2026-05-04 21:22 37.04811 -77.45494 32996 ft 483 kts 38°
2026-05-04 21:23 37.09871 -77.40074 33023 ft 472 kts 27°
2026-05-04 21:23 37.15685 -77.36642 33019 ft 457 kts 12°
2026-05-04 21:24 37.21690 -77.34052 33010 ft 456 kts 12°
2026-05-04 21:24 37.27677 -77.31449 33040 ft 455 kts 13°
2026-05-04 21:25 37.33655 -77.28841 33013 ft 454 kts 13°
2026-05-04 21:25 37.39610 -77.26240 32999 ft 452 kts 13°
2026-05-04 21:26 37.45546 -77.23651 32990 ft 451 kts 13°
2026-05-04 21:26 37.51481 -77.21064 33004 ft 451 kts 13°
2026-05-04 21:27 37.57371 -77.18502 33002 ft 450 kts 13°
2026-05-04 21:27 37.63289 -77.15909 32991 ft 450 kts 13°
2026-05-04 21:28 37.69224 -77.13218 32982 ft 453 kts 18°
2026-05-04 21:28 37.74787 -77.09476 32984 ft 457 kts 23°
2026-05-04 21:29 37.80366 -77.05610 32975 ft 457 kts 23°
2026-05-04 21:29 37.85944 -77.01759 32972 ft 457 kts 23°
2026-05-04 21:30 37.91516 -76.97893 32975 ft 456 kts 23°
2026-05-04 21:30 37.97075 -76.94023 32972 ft 456 kts 23°
2026-05-04 21:31 38.05416 -76.88215 32952 ft 456 kts 24°
2026-05-04 21:32 38.10975 -76.84333 32942 ft 456 kts 24°
2026-05-04 21:32 38.16531 -76.80440 32972 ft 455 kts 24°
2026-05-04 21:33 38.22070 -76.76562 32967 ft 454 kts 24°
2026-05-04 21:33 38.27274 -76.71916 32961 ft 461 kts 36°
2026-05-04 21:34 38.32155 -76.66632 32954 ft 461 kts 35°
2026-05-04 21:34 38.37047 -76.61344 32972 ft 461 kts 36°
2026-05-04 21:35 38.41924 -76.56064 32963 ft 460 kts 36°
2026-05-04 21:35 38.46798 -76.50800 32963 ft 459 kts 35°
2026-05-04 21:36 38.51684 -76.45553 32966 ft 459 kts 35°
2026-05-04 21:36 38.56579 -76.40318 32985 ft 459 kts 36°
2026-05-04 21:37 38.61460 -76.35066 32986 ft 458 kts 36°
2026-05-04 21:37 38.66320 -76.29807 32981 ft 457 kts 36°
2026-05-04 21:38 38.71143 -76.24584 32958 ft 456 kts 36°
2026-05-04 21:38 38.75995 -76.19339 32965 ft 456 kts 36°
2026-05-04 21:39 38.80839 -76.14070 32964 ft 456 kts 36°
2026-05-04 21:39 38.85680 -76.08808 32957 ft 456 kts 36°
2026-05-04 21:40 38.90521 -76.03535 32953 ft 456 kts 36°
2026-05-04 21:40 38.95322 -75.98293 32954 ft 455 kts 36°
2026-05-04 21:41 39.00070 -75.92895 32973 ft 456 kts 38°
2026-05-04 21:41 39.04703 -75.87289 32958 ft 456 kts 39°
2026-05-04 21:42 39.09311 -75.81683 32941 ft 456 kts 39°
2026-05-04 21:42 39.13950 -75.76122 32940 ft 455 kts 39°
2026-05-04 21:43 39.18593 -75.70593 32952 ft 454 kts 39°
2026-05-04 21:43 39.23195 -75.65092 32945 ft 453 kts 39°
2026-05-04 21:44 39.27809 -75.59545 32942 ft 453 kts 39°
2026-05-04 21:44 39.32411 -75.54002 32935 ft 453 kts 39°
2026-05-04 21:45 39.37018 -75.48454 32966 ft 452 kts 39°
2026-05-04 21:45 39.41606 -75.42909 32965 ft 451 kts 39°
2026-05-04 21:46 39.46188 -75.37358 32958 ft 450 kts 39°
2026-05-04 21:46 39.50740 -75.31844 32967 ft 449 kts 39°
2026-05-04 21:47 39.55296 -75.26304 32977 ft 449 kts 39°
2026-05-04 21:47 39.59837 -75.20764 32954 ft 448 kts 39°
2026-05-04 21:48 39.64372 -75.15234 32952 ft 447 kts 39°
2026-05-04 21:48 39.68920 -75.09727 32946 ft 446 kts 38°
2026-05-04 21:49 39.73580 -75.04415 32950 ft 445 kts 36°
2026-05-04 21:49 39.78300 -74.99216 32944 ft 444 kts 36°
2026-05-04 21:50 39.82999 -74.93995 32939 ft 444 kts 37°
2026-05-04 21:50 39.87658 -74.88715 32933 ft 444 kts 37°
2026-05-04 21:51 39.92488 -74.83747 32953 ft 440 kts 31°
2026-05-04 21:51 39.97490 -74.79157 32945 ft 440 kts 31°
2026-05-04 21:52 40.02475 -74.74540 32938 ft 441 kts 34°
2026-05-04 21:52 40.06836 -74.68833 32931 ft 446 kts 43°
2026-05-04 21:53 40.10997 -74.62819 32931 ft 446 kts 43°
2026-05-04 21:53 40.15167 -74.56830 32921 ft 445 kts 43°
2026-05-04 21:54 40.19333 -74.50839 32913 ft 445 kts 42°
2026-05-04 21:54 40.23918 -74.45598 32912 ft 439 kts 34°
2026-05-04 21:55 40.28659 -74.40542 32931 ft 439 kts 34°
2026-05-04 21:55 40.33391 -74.35476 32946 ft 439 kts 34°
2026-05-04 21:56 40.38118 -74.30406 32932 ft 438 kts 34°
2026-05-04 21:56 40.42835 -74.25341 32912 ft 438 kts 34°
2026-05-04 21:57 40.47550 -74.20280 32928 ft 438 kts 34°
2026-05-04 21:57 40.52218 -74.15119 32921 ft 441 kts 39°
2026-05-04 21:57 40.54223 -74.12034 32919 ft 448 kts 50°
2026-05-04 21:58 40.55812 -74.08483 32915 ft 455 kts 60°
2026-05-04 21:58 40.57851 -74.00591 32918 ft 461 kts 68°
2026-05-04 21:59 40.59724 -73.92521 32920 ft 461 kts 68°
2026-05-04 21:59 40.61600 -73.84436 32924 ft 461 kts 68°
2026-05-04 22:00 40.64050 -73.76744 32930 ft 450 kts 52°
2026-05-04 22:00 40.67864 -73.70438 32518 ft 433 kts 42°
2026-05-04 22:00 40.69205 -73.68488 31991 ft 435 kts 42°
2026-05-04 22:01 40.71245 -73.65523 31220 ft 438 kts 42°
2026-05-04 22:01 40.73298 -73.62532 30459 ft 440 kts 42°
2026-05-04 22:01 40.75355 -73.59527 29676 ft 443 kts 42°
2026-05-04 22:01 40.77418 -73.56504 29018 ft 441 kts 42°
2026-05-04 22:02 40.79474 -73.53480 28165 ft 445 kts 43°
2026-05-04 22:02 40.81548 -73.50425 27412 ft 448 kts 43°
2026-05-04 22:02 40.83630 -73.47362 27013 ft 449 kts 43°
2026-05-04 22:02 40.85719 -73.44285 26875 ft 451 kts 43°
2026-05-04 22:03 40.87832 -73.41176 26922 ft 459 kts 43°
2026-05-04 22:03 40.89977 -73.38018 26918 ft 463 kts 43°
2026-05-04 22:03 40.92127 -73.34840 26918 ft 464 kts 43°
2026-05-04 22:03 40.94277 -73.31653 26916 ft 465 kts 43°
2026-05-04 22:04 40.96427 -73.28463 26917 ft 465 kts 43°
2026-05-04 22:04 40.98553 -73.25306 26915 ft 465 kts 43°
2026-05-04 22:04 41.00704 -73.22113 26909 ft 465 kts 43°
2026-05-04 22:04 41.02854 -73.18915 26906 ft 465 kts 43°
2026-05-04 22:05 41.05032 -73.15671 26906 ft 465 kts 43°
2026-05-04 22:05 41.07151 -73.12513 26891 ft 464 kts 43°
2026-05-04 22:05 41.09281 -73.09334 26593 ft 457 kts 43°
2026-05-04 22:05 41.11387 -73.06192 26291 ft 455 kts 43°
2026-05-04 22:06 41.13491 -73.03050 25985 ft 456 kts 43°
2026-05-04 22:06 41.15598 -72.99903 25694 ft 457 kts 43°
2026-05-04 22:06 41.17711 -72.96748 25398 ft 458 kts 43°
2026-05-04 22:06 41.19822 -72.93578 25123 ft 459 kts 45°
2026-05-04 22:07 41.21684 -72.90096 24818 ft 466 kts 55°
2026-05-04 22:07 41.23184 -72.86274 24535 ft 468 kts 59°
2026-05-04 22:07 41.24648 -72.82416 24252 ft 466 kts 59°
2026-05-04 22:07 41.26110 -72.78571 23966 ft 465 kts 59°
2026-05-04 22:08 41.27568 -72.74748 23686 ft 463 kts 59°
2026-05-04 22:08 41.29021 -72.70940 23393 ft 461 kts 59°
2026-05-04 22:08 41.30468 -72.67144 23079 ft 459 kts 59°
2026-05-04 22:08 41.31909 -72.63367 22876 ft 457 kts 59°
2026-05-04 22:09 41.33352 -72.59589 22939 ft 458 kts 59°
2026-05-04 22:09 41.34791 -72.55815 22921 ft 457 kts 59°
2026-05-04 22:09 41.36223 -72.52045 22925 ft 457 kts 59°
2026-05-04 22:09 41.37657 -72.48263 22924 ft 457 kts 59°
2026-05-04 22:10 41.39067 -72.44530 22925 ft 457 kts 59°
2026-05-04 22:10 41.40491 -72.40751 22924 ft 457 kts 59°
2026-05-04 22:10 41.41914 -72.36976 22923 ft 457 kts 59°
2026-05-04 22:10 41.43340 -72.33195 22922 ft 457 kts 59°
2026-05-04 22:11 41.44768 -72.29414 22920 ft 457 kts 59°
2026-05-04 22:11 41.46194 -72.25621 22918 ft 457 kts 59°
2026-05-04 22:11 41.47612 -72.21837 22916 ft 456 kts 59°
2026-05-04 22:11 41.49020 -72.18062 22902 ft 456 kts 59°
2026-05-04 22:12 41.50416 -72.14264 22902 ft 456 kts 60°
2026-05-04 22:12 41.51803 -72.10462 22905 ft 456 kts 60°
2026-05-04 22:12 41.53185 -72.06654 22904 ft 456 kts 60°
2026-05-04 22:12 41.54564 -72.02847 22904 ft 456 kts 60°
2026-05-04 22:13 41.55937 -71.99022 22906 ft 456 kts 61°
2026-05-04 22:13 41.57222 -71.95148 22442 ft 456 kts 63°
2026-05-04 22:13 41.58406 -71.91237 21913 ft 453 kts 65°
2026-05-04 22:13 41.59527 -71.87317 21396 ft 450 kts 66°
2026-05-04 22:14 41.60626 -71.83411 20882 ft 447 kts 66°
2026-05-04 22:14 41.61722 -71.79537 20379 ft 444 kts 66°
2026-05-04 22:14 41.62823 -71.75703 19876 ft 439 kts 65°
2026-05-04 22:14 41.63926 -71.71917 19379 ft 433 kts 65°
2026-05-04 22:15 41.65020 -71.68202 18889 ft 427 kts 65°
2026-05-04 22:15 41.66105 -71.64538 18412 ft 421 kts 65°
2026-05-04 22:15 41.67174 -71.60924 17992 ft 414 kts 66°
2026-05-04 22:15 41.68210 -71.57404 17864 ft 398 kts 66°
2026-05-04 22:16 41.69197 -71.54032 17903 ft 381 kts 65°
2026-05-04 22:16 41.70139 -71.50799 17904 ft 366 kts 65°
2026-05-04 22:16 41.71057 -71.47648 17906 ft 362 kts 65°
2026-05-04 22:16 41.71975 -71.44518 17906 ft 361 kts 65°
2026-05-04 22:17 41.73070 -71.41529 17907 ft 357 kts 56°
2026-05-04 22:17 41.74299 -71.38691 18038 ft 358 kts 56°
2026-05-04 22:17 41.75564 -71.35746 17750 ft 362 kts 56°
2026-05-04 22:17 41.76809 -71.32841 17037 ft 367 kts 57°
2026-05-04 22:18 41.78087 -71.29855 16340 ft 372 kts 57°
2026-05-04 22:18 41.79379 -71.26826 15650 ft 377 kts 58°
2026-05-04 22:18 41.80680 -71.23764 14954 ft 375 kts 58°
2026-05-04 22:18 41.81945 -71.20780 14284 ft 362 kts 58°
2026-05-04 22:19 41.83170 -71.17885 13563 ft 352 kts 58°
2026-05-04 22:19 41.84367 -71.15059 12764 ft 345 kts 58°
2026-05-04 22:19 41.85533 -71.12307 12251 ft 330 kts 58°
2026-05-04 22:19 41.86628 -71.09735 12084 ft 307 kts 57°
2026-05-04 22:20 41.87674 -71.07309 12079 ft 300 kts 57°
2026-05-04 22:20 41.88760 -71.04821 12001 ft 317 kts 57°
2026-05-04 22:20 41.89877 -71.02255 11526 ft 320 kts 57°
2026-05-04 22:20 41.91004 -70.99660 11017 ft 322 kts 56°
2026-05-04 22:21 41.92134 -70.97055 10528 ft 325 kts 56°
2026-05-04 22:21 41.93271 -70.94425 10043 ft 327 kts 56°
2026-05-04 22:21 41.94418 -70.91770 9535 ft 328 kts 56°
2026-05-04 22:21 41.95563 -70.89107 9002 ft 330 kts 56°
2026-05-04 22:22 41.96708 -70.86435 8453 ft 330 kts 57°
2026-05-04 22:22 41.97820 -70.83823 8112 ft 310 kts 57°
2026-05-04 22:22 41.98858 -70.81373 8068 ft 295 kts 57°
2026-05-04 22:22 41.99889 -70.78958 8091 ft 300 kts 56°
2026-05-04 22:23 42.00962 -70.76544 8074 ft 299 kts 50°
2026-05-04 22:23 42.02289 -70.74418 8042 ft 296 kts 43°
2026-05-04 22:23 42.03676 -70.72364 8046 ft 297 kts 43°
2026-05-04 22:23 42.05057 -70.70304 8043 ft 296 kts 43°
2026-05-04 22:24 42.06434 -70.68242 8043 ft 297 kts 43°
2026-05-04 22:24 42.07815 -70.66171 8042 ft 297 kts 43°
2026-05-04 22:24 42.09192 -70.64109 8045 ft 296 kts 42°
2026-05-04 22:24 42.10755 -70.62383 8041 ft 286 kts 21°
2026-05-04 22:25 42.12621 -70.61699 7950 ft 275 kts 355°
2026-05-04 22:25 42.14493 -70.61886 7638 ft 268 kts 347°
2026-05-04 22:25 42.16332 -70.62224 7337 ft 267 kts 346°
2026-05-04 22:25 42.18153 -70.62575 7038 ft 269 kts 346°
2026-05-04 22:26 42.20016 -70.62935 6739 ft 270 kts 346°
2026-05-04 22:26 42.21880 -70.63292 6443 ft 271 kts 346°
2026-05-04 22:26 42.23747 -70.63645 6141 ft 271 kts 346°
2026-05-04 22:26 42.25616 -70.63998 5823 ft 271 kts 346°
2026-05-04 22:27 42.27466 -70.64433 5511 ft 268 kts 339°
2026-05-04 22:27 42.29244 -70.65149 5210 ft 266 kts 336°
2026-05-04 22:27 42.31003 -70.65921 4899 ft 266 kts 336°
2026-05-04 22:27 42.32763 -70.66701 4599 ft 267 kts 336°
2026-05-04 22:28 42.34525 -70.67489 4287 ft 267 kts 336°
2026-05-04 22:28 42.36277 -70.68281 3972 ft 265 kts 335°
2026-05-04 22:28 42.38031 -70.69066 3682 ft 266 kts 336°
2026-05-04 22:28 42.39657 -70.70137 3378 ft 254 kts 314°
2026-05-04 22:29 42.40648 -70.72001 3096 ft 241 kts 284°
2026-05-04 22:29 42.41021 -70.74193 3006 ft 239 kts 277°
2026-05-04 22:29 42.41249 -70.76426 3003 ft 239 kts 268°
2026-05-04 22:29 42.40840 -70.78560 3012 ft 236 kts 242°
2026-05-04 22:30 42.39993 -70.80434 3003 ft 234 kts 238°
2026-05-04 22:30 42.39085 -70.82250 2700 ft 231 kts 237°
2026-05-04 22:30 42.38347 -70.84230 2054 ft 241 kts 250°
2026-05-04 22:30 42.38086 -70.86361 2077 ft 227 kts 264°
2026-05-04 22:31 42.38078 -70.88525 1426 ft 231 kts 263°
2026-05-04 22:31 42.37650 -70.90498 1267 ft 205 kts 247°
2026-05-04 22:31 42.37126 -70.92165 1213 ft 182 kts 250°
2026-05-04 22:31 42.36867 -70.93812 860 ft 178 kts 261°
2026-05-04 22:32 42.36641 -70.95443 572 ft 170 kts 252°
2026-05-04 22:32 42.36357 -70.96901 384 ft 150 kts 253°
2026-05-04 22:32 42.36130 -70.98217 144 ft 144 kts 250°
2026-05-04 22:32 42.35902 -70.99464 28 ft 125 kts 252°
2026-05-04 22:33 42.35754 -71.00291 25 ft 46 kts 261°
2026-05-04 22:33 42.35763 -71.00456 25 ft 6 kts 274°
2026-05-04 22:33 42.35769 -71.00529 25 ft 18 kts 278°
2026-05-04 22:33 42.35789 -71.00724 25 ft 21 kts 278°
2026-05-04 22:34 42.35811 -71.00914 25 ft 20 kts 278°
2026-05-04 22:34 42.35828 -71.01079 25 ft 15 kts 278°
2026-05-04 22:34 42.35842 -71.01219 25 ft 15 kts 278°
2026-05-04 22:34 42.35856 -71.01356 25 ft 15 kts 278°
2026-05-04 22:35 42.35872 -71.01488 25 ft 14 kts 284°
2026-05-04 22:35 42.35891 -71.01613 28 ft 13 kts 279°
2026-05-04 22:35 42.35908 -71.01735 27 ft 13 kts 281°
2026-05-04 22:35 42.35932 -71.01849 29 ft 12 kts 298°
2026-05-04 22:36 42.35973 -71.01944 28 ft 11 kts 300°
2026-05-04 22:36 42.36011 -71.02032 28 ft 10 kts 302°
2026-05-04 22:36 42.36047 -71.02111 27 ft 10 kts 300°
2026-05-04 22:36 42.36095 -71.02220 28 ft 16 kts 303°
2026-05-04 22:37 42.36176 -71.02276 28 ft 12 kts
2026-05-04 22:37 42.36251 -71.02243 25 ft 11 kts 18°
2026-05-04 22:37 42.36318 -71.02204 28 ft 10 kts 38°
2026-05-04 22:37 42.36336 -71.02184 27 ft 4 kts 39°
2026-05-04 22:38 42.36354 -71.02165 27 ft 0 kts 39°